Home > Weather > Helsinki > Past weeks

Flag for Finland Weather for the Past 2 Weeks in Helsinki, Finland

Now
66 °F

Passing clouds.


Feels Like: 66 °F
Forecast: 44 / 62 °F
Wind: 10 mph from South

Location: Helsinki Malmi Airport

Current Time: May 4, 2016 at 5:43:31 PM

Latest Report: May 4, 2016 at 4:50 PM


Visibility: N/A

Pressure: 30.15 "Hg

Humidity: 32%

Dew Point: 36 °F

Location of HelsinkiLocation

Historic Weather in Helsinki — Graph

°F

Helsinki Temperature Yesterday

Maximum temperature yesterday: 63 °F (at 1:20 PM)
Minimum temperature yesterday: 37 °F (at 2:50 AM)
Average temperature yesterday: 53 °F

High & Low Weather Summary for the Past Weeks

 TemperatureHumidityPressure
High66 °F (May 4, 1:20 PM)100% (Apr 20, 1:20 AM)30.33 "Hg (Apr 20, 1:20 AM)
Low28 °F (Apr 22, 5:50 AM)27% (May 2, 3:50 PM)29.45 "Hg (Apr 25, 2:20 AM)
Average43 °F75%29.92 "Hg
* Reported Apr 19 4:20 PM — May 4 4:20 PM, Helsinki, Weather by CustomWeather, © 2016

Note: Actual official high and low records may vary slightly from our data, if they occured in-between our weather recording intervals... More about our weather records

Advertising

Helsinki Weather History for the Previous 24 Hours

Scroll right to see more
 ConditionsComfort  
Time TempWeatherWind HumidityBarometerVisibility
4:20 PM
Wed, May 4
66 °FPassing clouds.10 mph32%30.15 "HgN/A
3:50 PM66 °FSunny.13 mph30%30.15 "Hg10 mi
3:20 PM66 °FSunny.12 mph32%30.15 "Hg10 mi
1:50 PM66 °FPassing clouds.10 mph32%30.15 "HgN/A
1:20 PM66 °FPassing clouds.10 mph30%30.15 "HgN/A
12:20 PM64 °FSunny.3 mph32%30.15 "Hg10 mi
11:50 AM64 °FSunny.2 mph32%30.15 "Hg10 mi
10:50 AM63 °FSunny.2 mph34%30.15 "Hg10 mi
10:20 AM61 °FSunny.2 mph34%30.15 "Hg10 mi
9:20 AM59 °FSunny.No wind45%30.15 "Hg10 mi
8:50 AM57 °FSunny.No wind48%30.15 "Hg10 mi
8:20 AM52 °FSunny.1 mph58%30.15 "Hg10 mi
3:50 AM39 °FClear.No wind93%30.12 "Hg10 mi
3:20 AM39 °FClear.No wind93%30.12 "Hg10 mi
2:50 AM39 °FClear.No wind93%30.12 "Hg10 mi
1:50 AM41 °FClear.No wind87%30.12 "Hg10 mi
1:20 AM43 °FClear.No wind81%30.12 "Hg10 mi
12:50 AM43 °FClear.No wind81%30.12 "Hg10 mi
12:20 AM45 °FClear.1 mph76%30.09 "Hg10 mi
11:50 PM
Tue, May 3
45 °FClear.No wind76%30.09 "Hg10 mi
11:20 PM45 °FClear.No wind76%30.09 "Hg10 mi
10:50 PM50 °FClear.No wind62%30.09 "Hg10 mi
10:20 PM50 °FSunny.1 mph62%30.09 "Hg10 mi
9:50 PM54 °FSunny.2 mph54%30.09 "Hg10 mi
9:20 PM54 °FSunny.3 mph54%30.09 "Hg10 mi
8:50 PM55 °FSunny.5 mph51%30.09 "Hg10 mi
8:20 PM57 °FSunny.7 mph51%30.09 "Hg10 mi
7:50 PM59 °FPassing clouds.6 mph48%30.09 "HgN/A
7:20 PM59 °FSunny.6 mph48%30.09 "Hg10 mi
6:50 PM59 °FPassing clouds.6 mph51%30.09 "HgN/A
6:20 PM59 °FSunny.9 mph48%30.09 "Hg10 mi
5:50 PM61 °FPassing clouds.8 mph45%30.09 "HgN/A
5:20 PM59 °FSunny.8 mph48%30.09 "Hg10 mi
Weather by CustomWeather, © 2016

See weather overviewHow to use our weather pages